Theta_e
319 323 325 326 325 324 324 323 322 323 319 318 316 316 316 319 322 324 327 324 325 325 324 325 324 325 322 320 320 320 319 316 317 314 312 312 314 318 325 330 332 330 328
314 318 320 321 321 322 322 322 320 321 317 317 318 317 317 319 324 325 325 325 328 326 326 324 323 323 321 321 320 319 318 317 317 312 308 305 310 316 320 325 327 324 326
310 311 313 317 320 321 320 318 316 318 318 318 315 314 312 313 314 316 320 324 328 327 326 326 325 324 323 321 321 323 319 315 315 315 309 306 304 308 313 318 324 321 322
308 309 309 307 308 312 317 316 316 316 318 315 312 311 308 308 310 312 314 317 322 325 326 327 324 324 324 322 319 323 322 317 316 317 317 315 311 306 306 315 317 324 322
306 304 304 307 307 310 314 316 315 312 315 314 311 311 309 309 310 311 312 310 312 316 318 317 316 315 315 317 319 319 321 319 316 315 314 312 309 309 309 306 308 321 320
303 304 305 305 305 306 307 307 309 312 312 312 311 310 308 307 309 309 308 308 308 311 314 316 314 313 312 313 313 314 314 315 315 315 313 312 309 306 306 303 303 307 319
303 303 303 303 302 303 305 305 302 302 302 304 306 307 308 308 308 308 308 307 307 309 310 310 310 309 310 313 314 313 310 311 312 313 313 314 312 310 307 304 302 302 316
301 301 302 302 302 301 303 304 303 303 305 305 304 305 306 306 307 307 308 307 308 309 308 308 308 308 310 310 310 310 312 313 311 311 311 312 314 312 310 305 303 299 301
301 301 300 301 301 302 302 302 302 302 303 305 305 304 304 304 304 305 306 306 306 308 308 307 307 307 308 309 308 308 309 308 309 310 311 311 312 313 312 310 308 302 298
297 297 299 300 301 301 301 302 302 302 303 303 302 303 302 303 304 303 303 303 304 305 307 308 309 308 306 306 304 304 305 305 306 309 309 310 310 311 312 311 309 306 303
295 296 297 300 301 301 301 301 302 302 301 301 301 301 301 302 302 301 302 303 304 304 304 305 305 305 305 305 303 303 305 305 305 306 307 309 311 309 311 311 312 309 306
297 298 296 300 300 300 301 301 301 300 301 301 301 300 300 299 299 299 300 301 302 305 307 307 307 307 305 304 303 304 306 306 305 307 307 308 313 310 311 311 311 312 309
297 297 298 299 300 300 301 301 300 300 300 300 299 298 298 298 299 301 301 303 303 303 304 305 305 306 307 305 306 304 306 307 309 309 310 309 308 307 311 310 310 312 313
298 297 298 298 299 300 300 300 299 300 299 299 298 297 299 300 301 302 302 301 303 303 304 304 305 306 307 306 307 307 305 306 308 310 310 310 308 311 308 310 310 312 309
298 298 298 298 298 298 299 299 299 299 299 300 300 300 301 301 301 302 302 303 303 303 303 303 304 305 305 306 306 306 305 304 305 307 308 308 311 312 313 312 311 310 309
299 299 299 299 298 298 298 298 298 298 301 300 299 300 301 301 301 301 302 302 302 302 303 303 303 303 304 304 305 306 304 304 303 303 305 304 310 311 310 311 312 311 309
298 298 298 298 298 297 298 296 297 298 300 300 300 301 301 301 301 302 302 302 302 302 302 302 302 302 304 302 302 304 304 302 302 304 302 303 308 309 309 310 309 309 309
298 298 297 297 297 297 297 297 297 299 299 299 300 301 301 301 302 302 302 302 302 302 302 302 303 303 304 302 300 302 303 303 302 303 305 303 304 308 308 308 307 308 307
298 298 298 297 296 296 297 296 299 298 299 299 300 301 301 301 302 302 303 303 303 303 303 303 303 303 303 301 300 300 302 302 301 303 304 304 306 304 303 307 305 305 305
298 297 297 298 296 296 299 299 299 298 298 299 300 302 302 302 303 304 304 305 304 304 304 304 305 304 303 301 299 300 302 300 301 302 302 304 305 300 299 305 305 303 303
298 297 296 295 296 300 300 298 298 297 299 300 302 302 303 304 305 305 304 304 303 303 302 300 301 302 303 303 299 298 302 301 301 301 302 301 299 297 297 301 306 302 305
298 297 295 295 299 300 298 297 297 299 300 301 302 302 303 306 304 303 302 302 302 300 299 299 299 301 302 301 299 297 299 302 302 301 302 302 297 296 296 299 297 297 305
297 296 296 298 298 297 298 297 298 300 300 301 301 302 304 306 304 302 301 301 301 299 298 297 297 300 304 303 299 297 297 299 302 303 301 296 295 295 295 296 296 300 307
295 295 297 295 295 298 299 299 300 301 300 300 301 302 304 304 304 304 303 302 300 297 296 295 297 299 301 304 304 300 298 300 303 302 302 301 300 299 298 299 303 307 307
295 296 295 293 294 298 299 300 300 301 300 300 301 303 304 304 303 303 303 302 301 294 293 294 295 296 298 300 296 300 301 300 298 302 303 303 303 302 303 305 307 307 307
295 294 295 293 296 298 299 300 301 300 299 299 301 302 302 304 303 303 303 300 297 295 293 292 293 296 295 294 293 294 295 295 296 300 300 301 302 303 305 305 305 306 306
Wind_Speed
8 11 10 9 7 6 8 9 8 6 4 1 2 3 2 3 3 3 6 6 7 9 6 6 8 6 3 1 1 1 1 2 2 3 5 3 3 3 4 3 4 5 5
7 7 8 8 8 8 8 6 5 5 2 2 1 1 2 2 2 1 0 2 1 3 5 7 7 9 7 7 4 1 1 1 1 1 0 5 6 3 3 3 3 3 3
9 7 7 8 7 8 6 4 5 6 5 6 4 2 1 1 0 2 2 3 2 3 4 3 8 6 6 8 4 3 4 2 2 2 2 2 3 4 4 2 3 4 4
5 6 7 3 2 5 6 6 8 8 6 5 3 6 5 4 4 3 4 5 6 6 5 7 7 7 8 10 4 3 4 3 2 2 3 2 3 2 5 3 3 4 5
6 3 6 8 5 6 7 8 5 3 4 4 4 5 5 4 3 3 6 6 6 6 5 3 2 0 2 3 3 2 1 1 2 2 2 2 0 1 2 3 3 3 4
7 8 5 3 2 2 4 5 5 4 6 5 6 7 7 7 5 5 5 5 4 3 3 5 5 5 3 3 3 2 2 1 2 1 2 2 3 3 1 2 3 2 3
6 5 6 5 2 3 3 2 4 5 5 6 7 7 6 6 6 8 5 6 4 3 5 3 4 3 3 3 1 2 3 2 1 2 3 3 4 3 3 3 3 2 2
1 3 6 7 5 6 7 8 7 6 6 6 6 5 4 2 3 4 4 5 4 4 3 4 4 4 4 3 4 3 3 4 4 5 4 3 4 4 4 2 3 0 1
6 8 7 7 8 7 5 4 6 6 6 4 5 6 6 7 6 8 6 3 4 4 6 6 6 5 4 4 5 4 4 4 5 6 5 4 4 4 4 4 4 4 4
7 5 5 6 4 5 4 6 6 5 5 6 6 5 7 6 5 5 6 6 6 6 6 5 4 5 5 6 5 4 4 5 5 4 5 5 4 4 4 4 4 3 4
3 3 3 3 4 3 3 3 5 6 7 7 7 7 7 7 6 6 6 7 7 8 7 7 6 6 6 6 5 6 6 6 6 5 6 8 7 4 4 4 4 4 3
0 2 3 3 3 2 4 5 5 6 6 6 8 10 7 7 7 7 7 8 7 7 7 7 6 7 7 7 7 7 6 6 6 6 6 7 5 6 6 5 6 4 4
3 5 6 4 3 5 6 6 5 5 8 10 9 9 10 8 9 9 9 9 9 9 9 8 10 11 10 7 8 7 6 6 6 7 6 5 5 6 5 5 6 4 2
6 5 3 3 5 6 5 5 7 8 9 9 9 10 11 11 11 11 11 10 9 9 9 9 9 9 8 7 8 7 6 5 5 6 5 4 4 1 5 7 8 6 6
6 4 3 5 5 4 5 5 9 10 10 11 11 12 12 12 12 11 11 11 10 9 10 10 9 9 8 7 7 7 6 5 5 5 4 5 6 7 2 2 6 7 7
4 4 6 6 5 5 6 6 10 10 11 11 12 12 13 13 13 12 12 11 11 11 10 10 10 10 7 10 11 10 5 5 5 5 4 5 8 6 4 3 6 2 9
2 5 5 5 5 6 6 7 8 10 11 12 13 13 13 13 13 13 12 11 11 10 10 10 10 11 10 11 11 11 7 6 5 6 5 5 5 7 6 6 2 3 10
3 5 5 6 6 6 7 7 7 10 12 12 13 14 14 14 13 12 11 11 9 10 9 9 10 9 9 12 12 12 7 6 7 6 5 6 6 7 7 6 5 4 7
2 4 5 4 5 6 7 7 10 11 12 13 14 14 14 14 14 12 11 10 9 8 9 9 10 9 9 11 11 8 6 7 7 7 7 6 6 5 8 6 6 6 4
3 3 5 5 6 7 7 10 11 11 12 14 15 15 15 14 14 12 10 7 7 7 6 8 7 10 9 10 11 8 4 6 5 6 5 8 7 11 10 6 5 6 4
5 4 6 6 7 7 9 10 11 11 13 15 14 15 15 15 13 10 9 8 6 6 5 8 6 7 7 7 11 10 6 5 5 4 4 4 9 10 10 7 4 5 6
5 6 6 7 7 8 8 11 11 13 13 14 14 15 15 9 10 10 8 8 7 6 5 6 5 4 6 8 9 11 9 8 5 4 3 4 10 10 8 6 8 9 9
4 4 5 9 8 7 7 10 12 12 13 14 14 14 16 10 10 9 9 7 6 5 5 4 4 4 2 4 10 12 11 9 4 4 6 8 9 10 8 10 11 10 7
5 4 6 8 8 9 10 10 11 12 12 13 14 13 13 12 11 7 6 6 7 7 4 4 3 3 3 2 4 5 6 8 6 10 7 9 9 8 9 8 7 7 7
4 4 6 6 7 9 9 10 11 11 11 12 11 12 10 10 9 8 7 5 3 2 4 3 3 3 2 2 1 6 7 7 6 8 5 4 4 6 6 6 6 7 7
3 5 6 6 7 9 10 10 10 11 11 11 9 9 9 8 8 7 8 8 5 7 7 6 3 3 3 3 7 11 15 16 14 4 5 5 4 6 7 8 8 8 8
Wind_Direction
160 141 149 151 150 154 153 161 155 174 143 101 106 79 34 1 43 16 15 23 7 1 6 358 347 352 357 339 322 355 326 308 336 350 326 316 317 84 91 79 57 47 47
151 159 163 166 186 177 186 174 144 138 77 88 281 285 187 177 214 268 334 348 209 326 348 327 321 323 326 317 307 358 333 266 354 311 322 337 331 3 51 115 111 91 48
165 173 180 191 190 185 189 149 154 164 182 178 167 178 315 29 152 238 215 258 247 158 161 270 278 284 297 273 228 246 177 241 282 232 182 337 283 326 347 17 56 86 72
158 180 205 175 154 222 147 171 190 194 210 197 194 184 191 215 222 203 208 230 228 218 236 228 232 229 252 261 280 230 226 138 248 307 238 189 185 264 331 336 41 63 59
163 54 61 122 112 130 167 195 200 231 238 249 246 222 216 233 235 231 234 243 229 226 244 262 359 320 294 326 310 332 348 252 51 192 260 316 114 253 185 258 322 48 60
66 60 63 132 69 158 139 141 164 194 233 260 263 247 248 246 232 243 246 255 266 272 202 169 164 151 113 11 17 32 1 261 244 251 210 196 215 234 174 262 264 170 58
57 22 356 346 218 161 58 29 23 29 13 31 21 12 359 329 297 290 284 283 256 229 234 216 211 181 185 174 172 332 320 308 231 266 264 220 225 223 192 171 241 154 134
9 321 334 2 50 37 43 48 35 24 19 24 2 351 345 299 275 255 255 249 244 241 247 261 253 258 238 223 200 209 221 237 249 252 246 235 229 189 202 209 157 269 101
347 352 28 62 84 74 58 46 28 13 10 336 313 314 306 301 285 283 268 251 247 244 236 237 246 258 253 239 223 221 234 230 238 240 235 240 248 215 208 208 205 186 174
27 47 67 104 80 64 51 32 12 335 293 297 301 294 295 302 307 319 314 307 299 290 281 269 261 253 247 249 252 267 262 242 244 230 236 233 226 227 228 202 219 225 158
62 43 64 99 79 56 35 326 305 301 318 329 325 324 306 296 299 294 285 277 266 263 262 254 251 250 251 249 243 236 245 247 254 245 237 243 226 208 211 199 202 209 194
75 326 74 81 56 4 301 306 332 353 343 319 308 301 292 291 288 275 279 276 266 268 265 257 253 252 239 236 234 231 238 232 241 242 238 243 246 231 200 193 192 188 244
346 50 75 50 350 313 321 359 358 319 315 314 306 296 294 289 286 291 280 277 276 276 271 267 266 263 248 225 231 225 233 229 239 243 221 234 240 251 221 185 189 184 181
47 69 57 343 327 329 1 338 320 313 310 297 293 291 296 300 299 294 288 280 276 275 269 264 265 264 252 252 257 240 218 230 249 238 211 215 246 285 249 193 182 158 152
44 50 356 326 313 0 332 323 321 315 302 302 303 304 304 301 295 292 288 282 277 272 271 267 262 259 251 252 245 239 219 220 248 226 220 222 227 226 2 203 178 148 147
49 6 336 326 350 326 312 317 323 311 307 304 305 305 302 299 293 290 287 281 276 268 267 262 261 260 250 241 237 241 220 207 220 214 205 233 225 218 185 276 141 186 125
358 323 323 321 302 312 303 299 305 306 312 310 309 309 306 301 296 289 284 280 275 270 265 259 253 253 248 239 238 235 235 231 221 222 198 208 215 204 175 197 241 220 156
326 346 307 291 295 301 298 292 302 317 318 313 312 310 306 300 296 289 281 275 271 264 259 258 250 245 243 232 229 234 231 221 219 225 206 198 199 198 179 182 177 191 163
320 274 291 291 294 306 296 297 322 321 318 317 314 310 306 302 299 291 285 276 271 266 259 252 251 243 243 225 222 213 221 210 213 217 215 210 181 168 194 167 157 147 156
294 325 324 303 320 301 305 329 323 321 320 317 311 309 307 301 296 298 294 286 274 272 267 267 251 245 243 222 212 201 203 194 198 204 195 197 162 180 191 157 150 134 136
10 358 334 325 293 309 328 325 323 321 318 313 312 313 310 307 308 313 319 301 287 276 281 284 278 261 245 229 203 195 190 186 179 186 182 190 177 164 166 150 143 153 142
358 340 344 318 332 332 329 325 325 322 320 315 319 317 315 321 327 322 319 315 303 282 281 290 280 260 239 217 197 181 184 165 163 169 181 174 171 162 146 134 152 137 122
327 334 328 326 335 328 332 324 324 322 322 319 321 320 319 329 327 327 325 327 324 304 295 301 295 295 272 201 185 175 170 164 139 137 133 128 152 157 152 150 140 137 140
335 326 330 331 326 338 337 328 323 323 323 321 323 321 325 332 331 329 325 336 350 341 332 311 310 321 322 91 132 145 150 146 123 118 117 108 100 107 118 122 148 146 139
316 326 322 311 314 332 332 329 327 328 325 322 323 325 328 328 327 329 326 335 348 309 314 311 307 316 330 96 334 134 143 147 131 113 99 93 95 114 132 141 132 123 120
317 330 318 310 322 331 332 336 334 332 326 324 327 327 326 326 328 325 326 331 311 360 11 1 267 299 293 320 139 144 134 131 139 103 115 125 119 128 127 123 117 118 120